Погода Монтерей-Паркна неделю

Калифорния, США

01 - 07 сентября
  • 01сентября
    Сегодня
    +17°
    +30°
    Ясно и безоблачно
    ВремяПогодаТемператураВлажностьДавлениеВетер, м/сВероятность осадков
    02:00Ясно и безоблачно+18°C75 %751 мм1.2 м/с2 %
    05:00Ясно и безоблачно+16°C82 %750 мм0.6 м/с2 %
    08:00Ясно и безоблачно+19°C77 %751 мм0.3 м/с2 %
    11:00Ясно и безоблачно+24°C47 %751 мм2.2 м/с2 %
    14:00Ясно и безоблачно+29°C34 %751 мм3.4 м/с2 %
    17:00Ясно и безоблачно+28°C36 %750 мм4.1 м/с2 %
    20:00Ясно и безоблачно+23°C54 %750 мм3.1 м/с2 %
    23:00Ясно и безоблачно+20°C70 %751 мм1.7 м/с2 %
  • 02сентября
    Среда
    +18°
    +30°
    Ясно и безоблачно
    ВремяПогодаТемператураВлажностьДавлениеВетер, м/сВероятность осадков
    02:00Ясно и безоблачно+19°C74 %751 мм0.8 м/с2 %
    05:00Ясно и безоблачно+17°C79 %751 мм0.3 м/с2 %
    08:00Ясно и безоблачно+19°C69 %752 мм0.1 м/с2 %
    11:00Ясно и безоблачно+24°C46 %752 мм2.0 м/с2 %
    14:00Ясно и безоблачно+29°C30 %751 мм3.2 м/с2 %
    17:00Ясно и безоблачно+29°C31 %750 мм4.3 м/с2 %
    20:00Ясно и безоблачно+24°C47 %750 мм3.2 м/с2 %
    23:00Ясно и безоблачно+22°C55 %751 мм1.6 м/с2 %
  • 03сентября
    Четверг
    +18°
    +30°
    Ясно и безоблачно
    ВремяПогодаТемператураВлажностьДавлениеВетер, м/сВероятность осадков
    02:00Ясно и безоблачно+20°C68 %750 мм0.9 м/с2 %
    05:00Ясно и безоблачно+18°C71 %750 мм0.3 м/с2 %
    08:00Ясно и безоблачно+20°C73 %750 мм0.4 м/с2 %
    11:00Ясно и безоблачно+24°C46 %750 мм2.3 м/с2 %
    14:00Ясно и безоблачно+29°C37 %749 мм3.6 м/с2 %
    17:00Ясно и безоблачно+28°C42 %748 мм4.2 м/с2 %
    20:00Ясно и безоблачно+24°C59 %748 мм3.4 м/с2 %
    23:00Ясно и безоблачно+21°C68 %749 мм1.9 м/с2 %
  • 04сентября
    Пятница
    +18°
    +31°
    Ясно и безоблачно
    ВремяПогодаТемператураВлажностьДавлениеВетер, м/сВероятность осадков
    02:00Ясно и безоблачно+20°C79 %749 мм1.3 м/с2 %
    05:00Ясно и безоблачно+18°C87 %749 мм0.4 м/с2 %
    08:00Ясно и безоблачно+20°C76 %749 мм0.0 м/с2 %
    11:00Ясно и безоблачно+25°C49 %750 мм1.6 м/с2 %
    14:00Ясно и безоблачно+30°C32 %749 мм3.3 м/с2 %
    17:00Ясно и безоблачно+30°C31 %748 мм3.9 м/с2 %
    20:00Ясно и безоблачно+25°C58 %749 мм3.4 м/с2 %
    23:00Ясно и безоблачно+22°C70 %749 мм1.9 м/с2 %
  • 05сентября
    Суббота
    +21°
    +33°
    Ясно и безоблачно
    ВремяПогодаТемператураВлажностьДавлениеВетер, м/сВероятность осадков
    02:00Ясно и безоблачно+20°C82 %749 мм1.1 м/с2 %
    05:00Ясно и безоблачно+18°C84 %749 мм0.6 м/с5 %
    08:00Ясно и безоблачно+21°C68 %750 мм0.0 м/с12 %
    11:00Ясно и безоблачно+27°C36 %750 мм1.7 м/с14 %
    14:00Ясно и безоблачно+32°C22 %749 мм3.3 м/с20 %
    17:00Ясно и безоблачно+32°C23 %748 мм4.1 м/с21 %
    20:00Ясно и безоблачно+27°C50 %749 мм3.5 м/с19 %
    23:00Ясно и безоблачно+25°C61 %750 мм1.9 м/с20 %
  • 06сентября
    Воскресенье
    +19°
    +33°
    Ясно и безоблачно
    ВремяПогодаТемператураВлажностьДавлениеВетер, м/сВероятность осадков
    05:00Ясно и безоблачно+22°C77 %749 мм0.5 м/с33 %
    11:00Ясно и безоблачно+28°C48 %750 мм1.3 м/с39 %
    17:00Ясно и безоблачно+32°C47 %748 мм3.1 м/с36 %
    23:00Ясно и безоблачно+23°C57 %749 мм1.5 м/с25 %
  • 07сентября
    Понедельник
    +18°
    +32°
    Ясно и безоблачно
    ВремяПогодаТемператураВлажностьДавлениеВетер, м/сВероятность осадков
    05:00Ясно и безоблачно+20°C68 %749 мм1.4 м/с20 %
    11:00Ясно и безоблачно+28°C37 %750 мм2.2 м/с26 %
    17:00Ясно и безоблачно+30°C33 %748 мм3.3 м/с24 %
    23:00Ясно и безоблачно+21°C64 %749 мм1.5 м/с16 %
Мы используем cookies
Соглашаюсь